{"data":{"norad_id":58093,"intl_designator":"2023-160U","name":"STARLINK-30578","alt_names":[],"object_type":"PAYLOAD","status":"ACTIVE","operator":null,"country":"US","launch_date":"2023-10-18","launch_site_code":"AFETR","launch_vehicle":null,"mission":null,"orbit_class":"UNKNOWN","rcs_meters":null,"size_class":null,"mass_kg":null,"dimensions":null,"purposes":["comms"],"wikipedia_slug":null,"has_3d_model":false,"image_url":null,"decayed_at":null,"tle_current":{"epoch":"2026-09-20T21:49:08.957280Z","epoch_age_seconds":105159,"freshness":"FRESH","line1":"1 58093U 23160U   26263.90913145  .00000080  00000+0  12410-4 0  9997","line2":"2 58093  42.9998  55.2486 0000932 265.0307  95.0439 15.27576078162800","mean_motion":15.27576078,"eccentricity":9.32e-5,"inclination_deg":42.9998,"raan_deg":55.2486,"arg_perigee_deg":265.0307,"mean_anomaly_deg":95.0439,"bstar":1.241e-5,"rev_number":16280,"period_min":94.266990740346,"perigee_km":482.42137630503,"apogee_km":483.7003035824,"semimajor_km":6861.1978399437,"source":"CELESTRAK","updated_at":"2026-09-21T09:00:33.785026Z"}}}